Date String (YYYY-MM-DD hh:mm:ss) UTC,Instrument flags,Ambient pressure (hPa),Sample flow (lpm),Bypass flow (lpm),Sample temperature (°C),Ambient temperature (°C),ASC tube jacket temperature (°C),LED temperature (°C),Box temperature (°C),Sample RH (%),Span deviation,Mass concentration (μg/m³),Mass concentration (μg/m³),Mass concentration (μg/m³)
DateTimeUTC,F1_M11,P_M11,Q1_M11,Q2_M11,T1_M11,T2_M11,T3_M11,T4_M11,T5_M11,U1_M11,ZSPAN_M11,X0_M11,X2_M11,X1_M11
2022-03-29 11:00:00,,0810.6,4.99,0.00,27.8,27.0,00.0,36.9,29.6,11.4,0000.0,0015.81,0006.18,0004.77
2022-03-29 11:01:00,,0810.6,5.00,0.00,27.8,27.0,00.0,36.9,29.6,11.5,0002.8,0015.84,0006.21,0004.80
2022-03-29 11:02:00,,0810.6,5.00,0.00,27.9,27.0,00.0,36.9,29.6,11.5,0003.7,0016.03,0006.26,0004.85
2022-03-29 11:03:00,,0810.6,5.01,0.00,27.9,27.0,00.0,36.9,29.6,11.6,0004.0,0015.85,0006.30,0004.94
2022-03-29 11:04:00,,0810.6,4.99,0.00,27.8,27.0,00.0,36.9,29.6,11.7,0003.8,0015.62,0006.36,0005.03
2022-03-29 11:05:00,,0810.6,4.99,0.00,27.8,27.0,00.0,36.9,29.6,11.9,0003.4,0015.97,0006.51,0005.15
2022-03-29 11:06:00,,0810.6,5.01,0.00,27.8,27.0,00.0,36.9,29.5,12.0,0004.0,0016.54,0006.67,0005.27
2022-03-29 11:07:00,,0810.6,4.98,0.00,27.8,26.9,00.0,36.9,29.5,12.0,0004.0,0017.38,0006.82,0005.40
2022-03-29 11:08:00,,0810.6,5.01,0.00,27.8,26.8,00.0,36.9,29.5,12.1,0004.3,0017.52,0007.02,0005.57
2022-03-29 11:09:00,,0810.6,4.99,0.00,27.7,26.7,00.0,36.9,29.4,12.2,0004.6,0018.68,0007.24,0005.75
2022-03-29 11:10:00,,0810.6,5.02,0.00,27.7,26.6,00.0,36.8,29.4,12.2,0004.8,0019.20,0007.43,0005.90
2022-03-29 11:11:00,,0810.6,4.99,0.00,27.7,26.5,00.0,36.8,29.3,12.3,0004.9,0019.03,0007.57,0006.02
2022-03-29 11:12:00,,0810.6,5.01,0.00,27.6,26.5,00.0,36.8,29.3,12.3,0002.5,0020.01,0007.70,0006.13
2022-03-29 11:13:00,,0810.6,4.99,0.00,27.6,26.4,00.0,36.8,29.3,12.3,0000.0,0019.95,0007.84,0006.25
2022-03-29 11:14:00,,0810.6,5.01,0.00,27.6,26.4,00.0,36.8,29.3,12.4,0000.8,0020.14,0007.93,0006.36
2022-03-29 11:15:00,,0810.6,4.99,0.00,27.6,26.5,00.0,36.8,29.3,12.4,0005.3,0020.28,0007.99,0006.44
2022-03-29 11:16:00,,0810.6,5.00,0.00,27.6,26.5,00.0,36.7,29.2,12.4,0005.1,0020.21,0008.12,0006.55
2022-03-29 11:17:00,,0810.6,5.01,0.00,27.5,26.4,00.0,36.7,29.2,12.5,0004.9,0021.00,0008.23,0006.64
2022-03-29 11:18:00,,0810.6,4.99,0.00,27.5,26.4,00.0,36.7,29.2,12.5,0004.3,0020.02,0008.27,0006.71
2022-03-29 11:19:00,,0810.6,5.01,0.00,27.5,26.4,00.0,36.7,29.2,12.5,0003.1,0020.92,0008.33,0006.78
2022-03-29 11:20:00,,0810.6,4.99,0.00,27.5,26.4,00.0,36.7,29.2,12.5,0002.4,0020.87,0008.33,0006.80
2022-03-29 11:21:00,,0810.6,4.98,0.00,27.5,26.4,00.0,36.7,29.2,12.5,0002.0,0021.47,0008.37,0006.85
2022-03-29 11:22:00,,0810.6,5.01,0.00,27.5,26.4,00.0,36.6,29.2,12.6,0001.5,0022.98,0008.43,0006.91
2022-03-29 11:23:00,,0810.6,4.99,0.00,27.4,26.4,00.0,36.6,29.1,12.6,0000.9,0022.50,0008.57,0006.98
2022-03-29 11:24:00,,0810.6,5.02,0.00,27.4,26.4,00.0,36.6,29.1,12.6,0000.4,0022.61,0008.62,0007.00
2022-03-29 11:25:00,,0810.6,5.00,0.00,27.4,26.3,00.0,36.6,29.1,12.6,0000.4,0022.25,0008.62,0007.02
2022-03-29 11:26:00,,0810.6,5.00,0.00,27.4,26.3,00.0,36.6,29.1,12.7,0000.3,0021.64,0008.66,0007.03
2022-03-29 11:27:00,,0810.6,4.99,0.00,27.4,26.4,00.0,36.6,29.1,12.7,0000.9,0021.79,0008.69,0007.03
2022-03-29 11:28:00,,0810.6,5.00,0.00,27.4,26.4,00.0,36.5,29.1,12.7,0000.7,0021.52,0008.67,0007.03
2022-03-29 11:29:00,,0810.6,5.01,0.00,27.4,26.5,00.0,36.5,29.2,12.7,0002.2,0021.63,0008.70,0007.03
2022-03-29 11:30:00,,0810.5,5.00,0.00,27.4,26.5,00.0,36.5,29.2,12.7,0003.5,0021.04,0008.69,0007.03
2022-03-29 11:31:00,,0810.5,5.01,0.00,27.4,26.5,00.0,36.5,29.2,12.7,0004.2,0020.54,0008.74,0007.05
2022-03-29 11:32:00,,0810.5,4.99,0.00,27.4,26.6,00.0,36.5,29.2,12.7,0004.4,0020.20,0008.74,0007.06
2022-03-29 11:33:00,,0810.5,5.00,0.00,27.4,26.6,00.0,36.5,29.2,12.7,0004.5,0018.92,0008.72,0007.07
2022-03-29 11:34:00,,0810.5,5.01,0.00,27.4,26.6,00.0,36.5,29.1,12.6,0004.8,0019.07,0008.70,0007.08
2022-03-29 11:35:00,,0810.5,4.99,0.00,27.4,26.5,00.0,36.5,29.1,12.6,0004.8,0019.75,0008.67,0007.12
2022-03-29 11:36:00,,0810.5,5.00,0.00,27.4,26.5,00.0,36.5,29.1,12.7,0004.5,0020.34,0008.72,0007.16
2022-03-29 11:37:00,,0810.5,5.00,0.00,27.4,26.5,00.0,36.5,29.1,12.7,0004.6,0020.78,0008.76,0007.17
2022-03-29 11:38:00,,0810.5,4.99,0.00,27.4,26.5,00.0,36.5,29.1,12.8,0005.0,0019.99,0008.71,0007.18
2022-03-29 11:39:00,,0810.5,5.02,0.00,27.4,26.5,00.0,36.5,29.1,12.9,0005.2,0019.09,0008.68,0007.18
2022-03-29 11:40:00,,0810.5,4.99,0.00,27.3,26.4,00.0,36.5,29.1,12.8,0004.5,0019.37,0008.61,0007.17
2022-03-29 11:41:00,,0810.6,4.99,0.00,27.3,26.4,00.0,36.4,29.1,12.9,0004.1,0019.31,0008.61,0007.16
2022-03-29 11:42:00,,0810.6,5.01,0.00,27.3,26.3,00.0,36.4,29.0,12.9,0003.8,0019.08,0008.57,0007.15
2022-03-29 11:43:00,,0810.6,5.00,0.00,27.3,26.3,00.0,36.4,29.0,12.9,0003.7,0020.25,0008.56,0007.16
2022-03-29 11:44:00,,0810.6,5.00,0.00,27.3,26.3,00.0,36.4,29.0,12.9,0003.5,0020.74,0008.54,0007.15
2022-03-29 11:45:00,,0810.6,4.99,0.00,27.3,26.3,00.0,36.4,29.0,12.9,0002.8,0020.75,0008.52,0007.14
2022-03-29 11:46:00,,0810.6,5.00,0.00,27.3,26.3,00.0,36.4,29.0,12.9,0002.5,0020.54,0008.55,0007.13
2022-03-29 11:47:00,,0810.6,5.02,0.00,27.3,26.3,00.0,36.4,29.0,13.0,0002.7,0019.64,0008.54,0007.11
2022-03-29 11:48:00,,0810.6,4.99,0.00,27.3,26.3,00.0,36.4,29.0,13.0,0002.8,0020.11,0008.59,0007.10
2022-03-29 11:49:00,,0810.6,5.01,0.00,27.3,26.3,00.0,36.4,29.0,13.0,0002.8,0022.04,0008.60,0007.09
2022-03-29 11:50:00,,0810.6,4.99,0.00,27.3,26.3,00.0,36.4,29.0,13.0,0002.8,0023.29,0008.64,0007.10
2022-03-29 11:51:00,,0810.6,4.99,0.00,27.3,26.4,00.0,36.4,29.0,12.9,0002.9,0023.55,0008.66,0007.11
2022-03-29 11:52:00,,0810.6,5.02,0.00,27.3,26.4,00.0,36.4,29.0,12.9,0002.1,0022.67,0008.65,0007.09
2022-03-29 11:53:00,,0810.6,4.99,0.00,27.3,26.4,00.0,36.3,29.0,12.9,0001.7,0023.32,0008.70,0007.08
2022-03-29 11:54:00,,0810.6,5.01,0.00,27.3,26.4,00.0,36.3,29.1,12.9,0002.1,0023.01,0008.68,0007.05
2022-03-29 11:55:00,,0810.7,4.99,0.00,27.3,26.4,00.0,36.3,29.1,12.9,0002.1,0021.34,0008.61,0007.02
2022-03-29 11:56:00,,0810.6,5.00,0.00,27.3,26.4,00.0,36.3,29.1,12.9,0001.8,0021.22,0008.60,0006.99
2022-03-29 11:57:00,,0810.6,5.02,0.00,27.3,26.5,00.0,36.3,29.1,12.9,0002.1,0021.03,0008.56,0006.97
2022-03-29 11:58:00,,0810.6,4.99,0.00,27.3,26.5,00.0,36.3,29.1,12.9,0002.2,0022.13,0008.57,0006.94
2022-03-29 11:59:00,,0810.6,5.02,0.00,27.3,26.5,00.0,36.3,29.1,12.8,0001.9,0021.90,0008.51,0006.94
